AUA5PC LOWW-EDDS

Flight info

Callsign AUA5PC
Flight time 0h 54m
Altitude 30000
Route LUGEM1C/29 LUGEM DCT KIRDI DCT EBEDA L173 MAH/N0374F240 L173 DODIL T127 TEKSI TEKSI1W
Aircraft A320/M-SDE3FGHIRWY/LB1

Departure

Time 2026-05-07 19:14
Airport Vienna International Airport (LOWW)

Arrival

Time 2026-05-07 20:09
Airport Stuttgart Airport (EDDS)
Time Latitude Longitude Altitude Speed Heading
2026-05-07 18:52 48.11897 16.56768 610 ft 0 kts 206°
2026-05-07 18:55 48.11898 16.56768 618 ft 0 kts 206°
2026-05-07 19:03 48.11911 16.56777 609 ft 3 kts 204°
2026-05-07 19:04 48.11930 16.56789 623 ft 3 kts 198°
2026-05-07 19:04 48.11949 16.56797 624 ft 3 kts 181°
2026-05-07 19:04 48.11966 16.56794 609 ft 3 kts 137°
2026-05-07 19:04 48.11971 16.56785 609 ft 0 kts 116°
2026-05-07 19:08 48.11953 16.56840 621 ft 16 kts 116°
2026-05-07 19:08 48.11899 16.57008 609 ft 19 kts 116°
2026-05-07 19:08 48.11855 16.57184 613 ft 17 kts 89°
2026-05-07 19:09 48.11808 16.57338 617 ft 16 kts 137°
2026-05-07 19:09 48.11700 16.57391 609 ft 17 kts 164°
2026-05-07 19:09 48.11569 16.57446 609 ft 21 kts 163°
2026-05-07 19:09 48.11438 16.57421 609 ft 13 kts 206°
2026-05-07 19:10 48.11407 16.57399 609 ft 0 kts 205°
2026-05-07 19:10 48.11393 16.57389 609 ft 10 kts 206°
2026-05-07 19:10 48.11330 16.57343 609 ft 6 kts 205°
2026-05-07 19:10 48.11280 16.57307 609 ft 12 kts 207°
2026-05-07 19:11 48.11204 16.57296 609 ft 12 kts 142°
2026-05-07 19:11 48.11170 16.57396 609 ft 11 kts 115°
2026-05-07 19:11 48.11123 16.57520 609 ft 12 kts 136°
2026-05-07 19:11 48.11061 16.57515 609 ft 4 kts 206°
2026-05-07 19:12 48.11059 16.57513 609 ft 0 kts 206°
2026-05-07 19:12 48.11053 16.57508 609 ft 7 kts 206°
2026-05-07 19:13 48.10972 16.57440 612 ft 9 kts 223°
2026-05-07 19:13 48.10969 16.57367 621 ft 7 kts 294°
2026-05-07 19:13 48.10972 16.57356 609 ft 0 kts 295°
2026-05-07 19:13 48.10979 16.57335 614 ft 14 kts 296°
2026-05-07 19:14 48.11061 16.57081 609 ft 66 kts 296°
2026-05-07 19:14 48.11359 16.56168 616 ft 127 kts 296°
2026-05-07 19:14 48.11819 16.54752 632 ft 172 kts 295°
2026-05-07 19:14 48.12179 16.53093 1202 ft 168 kts 263°
2026-05-07 19:15 48.11983 16.51365 1811 ft 170 kts 257°
2026-05-07 19:15 48.11771 16.49506 2114 ft 192 kts 258°
2026-05-07 19:15 48.11541 16.47413 2384 ft 214 kts 257°
2026-05-07 19:15 48.11198 16.45147 2755 ft 232 kts 255°
2026-05-07 19:16 48.10794 16.42770 3365 ft 241 kts 255°
2026-05-07 19:16 48.10350 16.40234 3831 ft 260 kts 255°
2026-05-07 19:16 48.09900 16.37575 4612 ft 266 kts 259°
2026-05-07 19:16 48.09825 16.34810 5430 ft 270 kts 271°
2026-05-07 19:17 48.09864 16.32037 6361 ft 268 kts 273°
2026-05-07 19:17 48.09911 16.29212 7111 ft 275 kts 272°
2026-05-07 19:17 48.09963 16.26488 7835 ft 278 kts 272°
2026-05-07 19:17 48.10019 16.23566 8585 ft 283 kts 272°
2026-05-07 19:18 48.10087 16.20607 9344 ft 286 kts 276°
2026-05-07 19:18 48.10353 16.17631 10084 ft 290 kts 278°
2026-05-07 19:18 48.10641 16.14553 10439 ft 310 kts 278°
2026-05-07 19:18 48.10946 16.11253 10705 ft 329 kts 278°
2026-05-07 19:19 48.11259 16.07815 11299 ft 336 kts 278°
2026-05-07 19:19 48.11574 16.04326 11977 ft 340 kts 277°
2026-05-07 19:19 48.11887 16.00804 12686 ft 342 kts 277°
2026-05-07 19:19 48.12200 15.97261 13383 ft 345 kts 277°
2026-05-07 19:20 48.12516 15.93688 14068 ft 347 kts 276°
2026-05-07 19:20 48.12835 15.90088 14714 ft 350 kts 276°
2026-05-07 19:20 48.13152 15.86516 15336 ft 352 kts 276°
2026-05-07 19:20 48.13475 15.82872 15957 ft 354 kts 275°
2026-05-07 19:21 48.13797 15.79209 16561 ft 356 kts 275°
2026-05-07 19:21 48.14120 15.75520 17164 ft 358 kts 275°
2026-05-07 19:21 48.14443 15.71813 17742 ft 360 kts 274°
2026-05-07 19:21 48.14765 15.68086 18318 ft 362 kts 274°
2026-05-07 19:22 48.15085 15.64342 18879 ft 364 kts 274°
2026-05-07 19:22 48.15407 15.60554 19422 ft 366 kts 274°
2026-05-07 19:22 48.15731 15.56750 19946 ft 369 kts 274°
2026-05-07 19:22 48.16058 15.52926 20472 ft 371 kts 274°
2026-05-07 19:23 48.16387 15.49074 20972 ft 374 kts 274°
2026-05-07 19:23 48.16722 15.45184 21462 ft 377 kts 274°
2026-05-07 19:23 48.17052 15.41312 21932 ft 380 kts 273°
2026-05-07 19:23 48.17282 15.37365 22413 ft 380 kts 268°
2026-05-07 19:24 48.17377 15.33397 22872 ft 383 kts 268°
2026-05-07 19:24 48.17469 15.29394 23318 ft 386 kts 268°
2026-05-07 19:24 48.17561 15.25369 23761 ft 388 kts 268°
2026-05-07 19:24 48.17654 15.21315 24168 ft 391 kts 268°
2026-05-07 19:25 48.17750 15.17216 24569 ft 394 kts 268°
2026-05-07 19:25 48.17845 15.13100 24961 ft 396 kts 268°
2026-05-07 19:25 48.17943 15.08942 25337 ft 398 kts 268°
2026-05-07 19:25 48.18037 15.04787 25706 ft 401 kts 268°
2026-05-07 19:26 48.18128 15.00648 26057 ft 403 kts 268°
2026-05-07 19:26 48.18218 14.96437 26396 ft 405 kts 268°
2026-05-07 19:26 48.18305 14.92204 26738 ft 407 kts 267°
2026-05-07 19:26 48.18392 14.87945 27073 ft 410 kts 267°
2026-05-07 19:27 48.18478 14.83664 27384 ft 412 kts 267°
2026-05-07 19:27 48.18564 14.79346 27698 ft 414 kts 267°
2026-05-07 19:27 48.18649 14.75021 27988 ft 416 kts 267°
2026-05-07 19:27 48.18731 14.70672 28275 ft 419 kts 267°
2026-05-07 19:28 48.18811 14.66360 28545 ft 421 kts 267°
2026-05-07 19:28 48.18891 14.61951 28822 ft 422 kts 267°
2026-05-07 19:28 48.18973 14.57535 29082 ft 425 kts 267°
2026-05-07 19:28 48.19052 14.53100 29327 ft 427 kts 267°
2026-05-07 19:29 48.19127 14.48636 29582 ft 428 kts 266°
2026-05-07 19:29 48.19201 14.44164 29835 ft 430 kts 266°
2026-05-07 19:29 48.19274 14.39668 30011 ft 432 kts 266°
2026-05-07 19:29 48.19349 14.35230 30051 ft 419 kts 267°
2026-05-07 19:30 48.19494 14.26650 30053 ft 408 kts 266°
2026-05-07 19:30 48.19614 14.18218 30053 ft 407 kts 266°
2026-05-07 19:31 48.19726 14.09742 30056 ft 407 kts 266°
2026-05-07 19:31 48.19845 14.01246 30055 ft 407 kts 266°
2026-05-07 19:32 48.19952 13.92764 30051 ft 407 kts 266°
2026-05-07 19:32 48.20049 13.84275 30051 ft 407 kts 266°
2026-05-07 19:33 48.20140 13.75848 30054 ft 406 kts 266°
2026-05-07 19:33 48.20228 13.67371 30052 ft 406 kts 266°
2026-05-07 19:34 48.20306 13.58903 30053 ft 405 kts 266°
2026-05-07 19:34 48.20383 13.50444 30057 ft 405 kts 266°
2026-05-07 19:35 48.20459 13.41996 30060 ft 405 kts 267°
2026-05-07 19:35 48.20521 13.33624 30063 ft 404 kts 267°
2026-05-07 19:36 48.20576 13.25210 30065 ft 403 kts 267°
2026-05-07 19:36 48.20628 13.16800 30075 ft 402 kts 268°
2026-05-07 19:37 48.20670 13.08430 30082 ft 400 kts 268°
2026-05-07 19:37 48.20706 13.00157 30083 ft 399 kts 268°
2026-05-07 19:38 48.20736 12.91836 30088 ft 398 kts 268°
2026-05-07 19:38 48.20759 12.83551 30085 ft 397 kts 268°
2026-05-07 19:39 48.20326 12.75324 30088 ft 395 kts 263°
2026-05-07 19:39 48.19782 12.67135 30085 ft 394 kts 263°
2026-05-07 19:40 48.19232 12.58967 30089 ft 393 kts 263°
2026-05-07 19:40 48.18680 12.50877 30088 ft 392 kts 264°
2026-05-07 19:41 48.18128 12.42754 30085 ft 391 kts 264°
2026-05-07 19:41 48.17574 12.34648 30091 ft 391 kts 264°
2026-05-07 19:42 48.17008 12.26564 30088 ft 390 kts 264°
2026-05-07 19:42 48.16432 12.18457 30088 ft 390 kts 264°
2026-05-07 19:43 48.16700 12.10496 29784 ft 380 kts 289°
2026-05-07 19:43 48.17655 12.06856 29533 ft 371 kts 291°
2026-05-07 19:43 48.18615 12.03293 29286 ft 368 kts 291°
2026-05-07 19:44 48.19573 11.99748 29035 ft 365 kts 291°
2026-05-07 19:44 48.20522 11.96225 28781 ft 364 kts 291°
2026-05-07 19:44 48.21464 11.92706 28536 ft 363 kts 290°
2026-05-07 19:44 48.22385 11.89249 28291 ft 361 kts 290°
2026-05-07 19:45 48.23317 11.85741 28037 ft 360 kts 290°
2026-05-07 19:45 48.24238 11.82264 27785 ft 358 kts 290°
2026-05-07 19:45 48.25159 11.78780 27535 ft 357 kts 290°
2026-05-07 19:45 48.26073 11.75326 27285 ft 355 kts 290°
2026-05-07 19:46 48.26982 11.71883 27089 ft 355 kts 290°
2026-05-07 19:46 48.27892 11.68437 27078 ft 355 kts 290°
2026-05-07 19:46 48.28799 11.64995 27083 ft 355 kts 290°
2026-05-07 19:46 48.29708 11.61543 27083 ft 355 kts 290°
2026-05-07 19:47 48.30614 11.58090 27082 ft 355 kts 290°
2026-05-07 19:47 48.31517 11.54641 27083 ft 355 kts 290°
2026-05-07 19:47 48.32422 11.51189 26990 ft 356 kts 291°
2026-05-07 19:47 48.33328 11.47734 26729 ft 354 kts 291°
2026-05-07 19:48 48.34227 11.44305 26484 ft 353 kts 291°
2026-05-07 19:48 48.35121 11.40874 26234 ft 351 kts 291°
2026-05-07 19:48 48.36012 11.37450 25983 ft 350 kts 291°
2026-05-07 19:48 48.36888 11.34080 25735 ft 349 kts 291°
2026-05-07 19:49 48.37769 11.30689 25488 ft 347 kts 291°
2026-05-07 19:49 48.38647 11.27306 25233 ft 346 kts 291°
2026-05-07 19:49 48.39520 11.23938 24979 ft 345 kts 291°
2026-05-07 19:49 48.40391 11.20572 24729 ft 343 kts 291°
2026-05-07 19:50 48.41254 11.17230 24478 ft 342 kts 291°
2026-05-07 19:50 48.42112 11.13901 24232 ft 341 kts 291°
2026-05-07 19:50 48.42965 11.10585 23980 ft 339 kts 291°
2026-05-07 19:50 48.43813 11.07282 23720 ft 335 kts 291°
2026-05-07 19:51 48.44649 11.04022 23327 ft 332 kts 291°
2026-05-07 19:51 48.45476 11.00790 22903 ft 330 kts 290°
2026-05-07 19:51 48.46021 10.98653 22635 ft 328 kts 290°
2026-05-07 19:51 48.47114 10.94373 22086 ft 326 kts 290°
2026-05-07 19:52 48.47926 10.91199 21681 ft 324 kts 290°
2026-05-07 19:52 48.48724 10.88078 21288 ft 322 kts 290°
2026-05-07 19:52 48.49526 10.84933 20890 ft 320 kts 290°
2026-05-07 19:52 48.50321 10.81806 20496 ft 318 kts 290°
2026-05-07 19:53 48.51112 10.78693 20099 ft 316 kts 290°
2026-05-07 19:53 48.51898 10.75602 19716 ft 315 kts 290°
2026-05-07 19:53 48.52677 10.72523 19329 ft 313 kts 290°
2026-05-07 19:53 48.53449 10.69466 18951 ft 312 kts 290°
2026-05-07 19:54 48.54221 10.66414 18573 ft 310 kts 290°
2026-05-07 19:54 48.54986 10.63378 18201 ft 309 kts 289°
2026-05-07 19:54 48.55746 10.60360 17823 ft 307 kts 289°
2026-05-07 19:54 48.56503 10.57356 17458 ft 306 kts 289°
2026-05-07 19:55 48.57257 10.54354 17090 ft 304 kts 289°
2026-05-07 19:55 48.58004 10.51370 16724 ft 303 kts 289°
2026-05-07 19:55 48.58497 10.49400 16484 ft 302 kts 289°
2026-05-07 19:55 48.59238 10.46441 16129 ft 301 kts 289°
2026-05-07 19:56 48.59976 10.43483 15771 ft 300 kts 289°
2026-05-07 19:56 48.60708 10.40543 15420 ft 299 kts 289°
2026-05-07 19:56 48.61438 10.37613 15068 ft 297 kts 289°
2026-05-07 19:56 48.62166 10.34688 14722 ft 296 kts 289°
2026-05-07 19:57 48.62888 10.31780 14372 ft 295 kts 289°
2026-05-07 19:57 48.63608 10.28879 14018 ft 294 kts 289°
2026-05-07 19:57 48.64326 10.25981 13672 ft 293 kts 289°
2026-05-07 19:57 48.65041 10.23100 13318 ft 292 kts 289°
2026-05-07 19:58 48.65750 10.20225 12968 ft 290 kts 289°
2026-05-07 19:58 48.66454 10.17368 12616 ft 289 kts 289°
2026-05-07 19:58 48.67154 10.14524 12262 ft 288 kts 289°
2026-05-07 19:58 48.67843 10.11725 11913 ft 286 kts 289°
2026-05-07 19:59 48.68539 10.08898 11546 ft 285 kts 289°
2026-05-07 19:59 48.69148 10.06044 11177 ft 283 kts 281°
2026-05-07 19:59 48.69500 10.03117 10813 ft 282 kts 279°
2026-05-07 19:59 48.69847 10.00196 10442 ft 281 kts 279°
2026-05-07 20:00 48.70196 9.97293 10075 ft 280 kts 280°
2026-05-07 20:00 48.70546 9.94398 9699 ft 279 kts 280°
2026-05-07 20:00 48.70895 9.91507 9315 ft 278 kts 280°
2026-05-07 20:00 48.71239 9.88631 8869 ft 280 kts 279°
2026-05-07 20:01 48.71582 9.85748 8531 ft 277 kts 279°
2026-05-07 20:01 48.71919 9.82885 8147 ft 275 kts 279°
2026-05-07 20:01 48.72250 9.80066 7762 ft 275 kts 280°
2026-05-07 20:01 48.72585 9.77221 7361 ft 274 kts 280°
2026-05-07 20:02 48.72921 9.74388 6958 ft 273 kts 280°
2026-05-07 20:02 48.73255 9.71567 6598 ft 269 kts 280°
2026-05-07 20:02 48.73570 9.68870 6452 ft 249 kts 280°
2026-05-07 20:02 48.73860 9.66381 6225 ft 233 kts 280°
2026-05-07 20:03 48.74134 9.64037 6057 ft 218 kts 281°
2026-05-07 20:03 48.74392 9.61840 5799 ft 208 kts 280°
2026-05-07 20:03 48.74641 9.59697 5402 ft 205 kts 280°
2026-05-07 20:03 48.74888 9.57564 4964 ft 205 kts 281°
2026-05-07 20:04 48.75078 9.55507 4770 ft 191 kts 271°
2026-05-07 20:04 48.74870 9.53544 4372 ft 190 kts 255°
2026-05-07 20:04 48.74514 9.51643 4021 ft 188 kts 255°
2026-05-07 20:04 48.74157 9.49722 3999 ft 190 kts 255°
2026-05-07 20:05 48.73799 9.47804 3993 ft 184 kts 255°
2026-05-07 20:05 48.73460 9.45989 3970 ft 176 kts 255°
2026-05-07 20:05 48.73241 9.44814 3875 ft 174 kts 255°
2026-05-07 20:05 48.72805 9.42486 3610 ft 171 kts 255°
2026-05-07 20:06 48.72482 9.40765 3389 ft 169 kts 255°
2026-05-07 20:06 48.72160 9.39049 3174 ft 170 kts 255°
2026-05-07 20:06 48.71840 9.37338 2957 ft 169 kts 255°
2026-05-07 20:06 48.71520 9.35632 2728 ft 167 kts 255°
2026-05-07 20:07 48.71213 9.33999 2507 ft 156 kts 255°
2026-05-07 20:07 48.70920 9.32445 2314 ft 151 kts 255°
2026-05-07 20:07 48.70632 9.30930 2110 ft 149 kts 255°
2026-05-07 20:07 48.70352 9.29427 1919 ft 148 kts 255°
2026-05-07 20:08 48.70072 9.27931 1726 ft 147 kts 254°
2026-05-07 20:08 48.69792 9.26446 1546 ft 146 kts 255°
2026-05-07 20:08 48.69511 9.24966 1382 ft 145 kts 255°
2026-05-07 20:08 48.69244 9.23522 1289 ft 134 kts 255°
2026-05-07 20:09 48.69018 9.22348 1287 ft 96 kts 254°
2026-05-07 20:09 48.68854 9.21489 1285 ft 58 kts 253°
2026-05-07 20:09 48.68825 9.21059 1285 ft 40 kts 279°
2026-05-07 20:10 48.68858 9.20846 1285 ft 0 kts 284°
2026-05-07 20:10 48.68860 9.20838 1286 ft 4 kts 284°
2026-05-07 20:10 48.68882 9.20751 1286 ft 13 kts 308°
2026-05-07 20:10 48.68945 9.20611 1286 ft 18 kts 270°
2026-05-07 20:11 48.68910 9.20422 1285 ft 19 kts 253°
2026-05-07 20:11 48.68873 9.20225 1287 ft 20 kts 253°
2026-05-07 20:11 48.68834 9.20019 1286 ft 21 kts 254°
2026-05-07 20:11 48.68842 9.19888 1289 ft 4 kts 342°
2026-05-07 20:12 48.68870 9.19876 1285 ft 5 kts 345°
2026-05-07 20:12 48.68889 9.19831 1286 ft 6 kts 275°
2026-05-07 20:12 48.68882 9.19764 1287 ft 6 kts 270°
2026-05-07 20:12 48.68918 9.19730 1286 ft 7 kts 347°
2026-05-07 20:13 48.68950 9.19717 1285 ft 0 kts 345°
2026-05-07 20:13 48.68951 9.19717 1285 ft 0 kts 345°